Weather History for KRDU - April, 2012

Change the Weather History Date:

Friday, April 27, 2012

  Actual Average Record
Temperature  
Mean Temperature 68 °F 63 °F  
Max Temperature 77 °F 75 °F 92 °F (1990)
Min Temperature 59 °F 51 °F 32 °F (1976)
Degree Days  
Heating Degree Days 0 4  
Month to date heating degree days 185 180  
Since 1 July heating degree days 2511 3176  
Cooling Degree Days 3 2  
Month to date cooling degree days 34 41  
Year to date cooling degree days 82 53  
Growing Degree Days 18 (Base 50)    
Moisture  
Dew Point 53 °F    
Average Humidity 67    
Maximum Humidity 97    
Minimum Humidity 36    
Precipitation  
Precipitation 0.00 in 0.09 in 1.75 in (1960)
Month to date precipitation 2.63 2.66  
Year to date precipitation 11.89 13.50  
Snow  
Snow 0.00 in 0.00 in 0.00 in (2001)
Month to date snowfall 0.0 0.1  
Since 1 July snowfall 0.9 6.1  
Snow Depth 0.00 in    
Sea Level Pressure  
Sea Level Pressure 29.98 in    
Wind  
Wind Speed 5 mph (NNE)    
Max Wind Speed 12 mph    
Max Gust Speed 17 mph    
Visibility 10 miles    
Events Fog    
T = Trace of Precipitation, MM = Missing Value Source: NWS Daily Summary

Daily Weather History Graph

Daily Weather History Graph

Search for Another Location

Airport or City:

Trip Planner

Search our weather history database for the weather conditions in past years. The results will help you decide how hot, cold, wet, or windy it might be!

Date:

Astronomy

Apr. 27, 2012 Rise Set
Actual Time 6:26 AM EDT 7:59 PM EDT
Civil Twilight 5:59 AM EDT 8:26 PM EDT
Nautical Twilight 5:26 AM EDT 8:59 PM EDT
Astronomical Twilight 4:52 AM EDT 9:33 PM EDT
Moon 11:05 AM EDT (4/27) 12:41 AM EDT (4/27)
Length of Visible Light 14h 26m
Length of Day
13h 32m
Waxing Crescent, 33% of the Moon is Illuminated
Apr 27
Waxing Crescent
Apr 29
First Quarter
May 5
Full
May 12
Last Quarter
May 20
New

Hourly Weather History & Observations

Time (EDT) Temp. Dew Point Humidity Pressure Visibility Wind Dir Wind Speed Gust Speed Precip Events Conditions
12:51 AM 66.9 °F 62.1 °F 84% 29.83 in 10.0 mi WSW 8.1 mph - N/A   Scattered Clouds
1:51 AM 64.0 °F 61.0 °F 90% 29.83 in 10.0 mi SSW 4.6 mph - N/A   Scattered Clouds
2:51 AM 64.9 °F 62.1 °F 90% 29.83 in 10.0 mi SW 6.9 mph - N/A   Mostly Cloudy
3:51 AM 64.0 °F 61.0 °F 90% 29.84 in 10.0 mi WSW 3.5 mph - N/A   Partly Cloudy
4:51 AM 62.1 °F 59.0 °F 90% 29.86 in 8.0 mi Calm Calm - N/A   Partly Cloudy
5:51 AM 60.1 °F 59.0 °F 96% 29.89 in 8.0 mi Calm Calm - N/A   Scattered Clouds
6:51 AM 59.0 °F 57.9 °F 96% 29.93 in 10.0 mi Calm Calm - N/A Fog Shallow Fog
7:51 AM 62.1 °F 61.0 °F 96% 29.96 in 10.0 mi Calm Calm - N/A   Scattered Clouds
8:51 AM 66.9 °F 55.9 °F 68% 29.98 in 10.0 mi NNE 6.9 mph - N/A   Mostly Cloudy
9:51 AM 66.9 °F 55.0 °F 66% 29.99 in 10.0 mi NNE 5.8 mph - N/A   Mostly Cloudy
10:51 AM 70.0 °F 54.0 °F 57% 30.01 in 10.0 mi North 4.6 mph - N/A   Mostly Cloudy
11:51 AM 71.1 °F 54.0 °F 55% 30.04 in 10.0 mi Variable 6.9 mph - N/A   Mostly Cloudy
12:51 PM 73.0 °F 54.0 °F 51% 30.02 in 10.0 mi Variable 6.9 mph - N/A   Mostly Cloudy
1:51 PM 73.9 °F 53.1 °F 48% 30.02 in 10.0 mi Variable 5.8 mph - N/A   Mostly Cloudy
2:51 PM 75.2 °F 51.8 °F 44% 30.03 in 10.0 mi Variable 6.9 mph - N/A   Mostly Cloudy
3:51 PM 75.9 °F 51.1 °F 42% 30.01 in 10.0 mi NNW 4.6 mph - N/A   Scattered Clouds
4:51 PM 75.9 °F 48.9 °F 38% 30.01 in 10.0 mi NW 6.9 mph - N/A   Scattered Clouds
5:51 PM 75.0 °F 46.9 °F 37% 30.01 in 10.0 mi NNE 9.2 mph - N/A   Scattered Clouds
6:51 PM 72.0 °F 46.0 °F 40% 30.01 in 10.0 mi NNE 8.1 mph - N/A   Scattered Clouds
7:51 PM 66.2 °F 44.6 °F 46% 30.04 in 10.0 mi NE 5.8 mph - N/A   Mostly Cloudy
8:51 PM 66.0 °F 44.1 °F 45% 30.06 in 10.0 mi NNE 6.9 mph - N/A   Mostly Cloudy
9:51 PM 63.0 °F 45.0 °F 52% 30.09 in 10.0 mi ENE 6.9 mph - N/A   Scattered Clouds
10:51 PM 63.0 °F 45.0 °F 52% 30.10 in 10.0 mi ENE 4.6 mph - N/A   Mostly Cloudy
11:51 PM 63.0 °F 42.1 °F 46% 30.11 in 10.0 mi East 4.6 mph - N/A   Mostly Cloudy